Regional Weather Roundup
Issued by NWS

Home | Current Version | Previous Version | Graphics & Text | Print | Product List | Glossary On
Versions: 1 2 3 4 5 6 7 8 9 10 11 12 13 14 15 16 17 18 19 20 21 22 23 24 25 26 27 28 29 30 31 32 33 34 35 36 37 38 39 40 41 42 43 44 45 46 47 48 49 50
251
ASUS45 KSLC 300310
RWRUT

UTAH REGIONAL WEATHER ROUNDUP
NATIONAL WEATHER SERVICE SALT LAKE CITY UT
900 PM MDT SAT APR 29 2017

UTZ001>011-023>025-300400-

NORTHERN UTAH

CITY           SKY/WX    TMP DP  RH WIND       PRES   REMARKS
BRIGHAM CITY   CLEAR     51  32  48 SW5       30.19R
HILL AFB       CLEAR     47  26  43 CALM      30.19R
LOGAN          PTCLDY    47  34  60 E8        30.19R
OGDEN          CLEAR     48  27  44 NW3       30.19R
SALT LAKE CITY PTCLDY    50  32  50 W7        30.19R
TOOELE VALLEY  CLEAR     45  32  61 CALM      30.20R
WENDOVER       CLEAR     54  26  34 SE3       30.19R
HEBER CITY     PTCLDY    39  21  48 N7        30.19R WCI  34
WEST JORDAN    CLEAR     47  36  64 NW3       30.20R

$$

UTZ011>015-024>027-300400-

CENTRAL/NORTHEAST UTAH

CITY           SKY/WX    TMP DP  RH WIND       PRES   REMARKS
PROVO AIRPORT  CLEAR     49  25  39 N10       30.19R
MOAB/CANYONLAN CLOUDY    51  17  26 NE12      30.06R
DELTA          CLEAR     46  18  31 N8        30.19R
PRICE          CLEAR     44  18  35 NE13      30.12R
ROOSEVELT      CLEAR     45  18  33 SE8       30.15R
VERNAL         CLEAR     41  16  36 NE6       30.17R

$$

UTZ013>016-019>022-027-300400-

SOUTHERN UTAH

CITY           SKY/WX    TMP DP  RH WIND       PRES   REMARKS
BRYCE CANYON   CLEAR     38  12  34 NW16      30.17R WCI  29
CEDAR CITY     CLEAR     43  21  41 N9        30.17R
MILFORD        CLEAR     50  19  29 N18       30.16R
ST GEORGE      PTCLDY    63  19  18 NE17G23   30.08R
HANKSVILLE     MOCLDY    50  16  25 E8        30.08R
BLANDING       CLEAR     44  16  32 N12       30.14R

$$

REGIONAL REPORTS     COLORADO/ARIZONA

CITY           SKY/WX    TMP DP  RH WIND       PRES   REMARKS
CRAIG, CO      CLOUDY    37  19  48 N17G23    30.14R WCI  27
GRAND JUNCTION CLEAR     46  20  35 N13       30.10R
RIFLE, CO      CLOUDY    42  26  53 CALM      30.11R
MONTROSE, CO   CLOUDY    44  26  49 NW9       30.08R
CORTEZ, CO     PTCLDY    43  21  41 N10       30.03R
COLORADO CITY    N/A     54  21  28 NW10      30.15R
PAGE, AZ       CLEAR     60  14  16 N14       30.04R
GRAND CANYON   PTCLDY    46  11  24 N3        30.11R
KINGMAN, AZ    CLEAR     62  14  15 N13       30.06R
FLAGSTAFF, AZ  PTCLDY    40  11  30 NW3       30.12R

$$

REGIONAL REPORTS    NEVADA/IDAHO/WYOMING

CITY           SKY/WX    TMP DP  RH WIND       PRES   REMARKS
LAS VEGAS, NV  CLEAR     74  10   8 NE10      30.00S
ELY, NY        CLEAR     40  16  37 NW5       30.20R
ELKO, NV       PTCLDY    50  26  39 W6        30.21R
POCATELLO, ID  CLEAR     44  30  57 S8        30.18R
BURLEY, ID     MOCLDY    49  23  36 W7        30.16S
EVANSTON, WY   CLEAR     36  20  52 S3        30.22R
ROCK SPRINGS,  CLEAR     33  19  56 E8        30.19R WCI  26
KEMMERER, WY     N/A     32  25  74 W5        30.20R WCI  27

$$




USA.gov is the U.S. government's official web portal to all federal, state and local government web resources and services.